TimeCST,TemperatureF,Dew PointF,Humidity,Sea Level PressureIn,VisibilityMPH,Wind Direction,Wind SpeedMPH,Gust SpeedMPH,PrecipitationIn,Events,Conditions,WindDirDegrees,DateUTC
12:10 AM,32.0,24.8,75,30.01,10.0,SSW,10.4,-,N/A,,Mostly Cloudy,200,2014-01-01 06:10:00
12:30 AM,30.2,24.8,80,30.00,10.0,South,10.4,-,N/A,,Mostly Cloudy,190,2014-01-01 06:30:00
12:50 AM,32.0,24.8,75,29.99,10.0,South,11.5,-,N/A,,Mostly Cloudy,190,2014-01-01 06:50:00
1:10 AM,32.0,24.8,75,29.98,10.0,South,11.5,-,N/A,,Mostly Cloudy,180,2014-01-01 07:10:00
1:30 AM,32.0,24.8,75,29.96,10.0,South,11.5,-,N/A,,Mostly Cloudy,180,2014-01-01 07:30:00
1:50 AM,30.2,24.8,80,29.96,10.0,South,11.5,-,N/A,,Scattered Clouds,190,2014-01-01 07:50:00
2:10 AM,30.2,24.8,80,29.95,10.0,South,11.5,-,N/A,,Scattered Clouds,180,2014-01-01 08:10:00
2:30 AM,30.2,24.8,80,29.95,10.0,South,8.1,-,N/A,,Mostly Cloudy,180,2014-01-01 08:30:00
2:50 AM,32.0,24.8,75,29.95,10.0,SSE,4.6,-,N/A,,Mostly Cloudy,160,2014-01-01 08:50:00
3:10 AM,30.2,24.8,80,29.95,10.0,East,3.5,-,N/A,,Scattered Clouds,100,2014-01-01 09:10:00
3:30 AM,30.2,24.8,80,29.94,10.0,ESE,4.6,-,N/A,,Mostly Cloudy,110,2014-01-01 09:30:00
3:50 AM,30.2,24.8,80,29.93,10.0,East,6.9,-,N/A,,Scattered Clouds,90,2014-01-01 09:50:00
4:10 AM,30.2,24.8,80,29.92,10.0,East,3.5,-,N/A,,Scattered Clouds,80,2014-01-01 10:10:00
4:30 AM,28.4,24.8,86,29.91,10.0,Calm,Calm,-,N/A,,Scattered Clouds,0,2014-01-01 10:30:00
4:50 AM,28.4,24.8,86,29.90,10.0,East,4.6,-,N/A,,Scattered Clouds,90,2014-01-01 10:50:00
5:10 AM,26.6,24.8,93,29.90,10.0,SE,4.6,-,N/A,,Partly Cloudy,130,2014-01-01 11:10:00
5:30 AM,26.6,24.8,93,29.90,10.0,SSE,5.8,-,N/A,,Partly Cloudy,160,2014-01-01 11:30:00
5:50 AM,26.6,23.0,86,29.88,10.0,SSE,5.8,-,N/A,,Partly Cloudy,150,2014-01-01 11:50:00
6:10 AM,26.6,24.8,93,29.90,10.0,East,3.5,-,N/A,,Partly Cloudy,90,2014-01-01 12:10:00
6:30 AM,26.6,23.0,86,29.89,10.0,SE,5.8,-,N/A,,Partly Cloudy,140,2014-01-01 12:30:00
6:50 AM,26.6,24.8,93,29.89,10.0,SE,6.9,-,N/A,,Clear,140,2014-01-01 12:50:00
7:10 AM,26.6,24.8,93,29.89,10.0,ESE,6.9,-,N/A,,Clear,120,2014-01-01 13:10:00
7:30 AM,26.6,23.0,86,29.91,10.0,NE,5.8,-,N/A,,Clear,40,2014-01-01 13:30:00
7:50 AM,24.8,23.0,93,29.92,10.0,North,3.5,-,N/A,,Clear,360,2014-01-01 13:50:00
8:10 AM,24.8,23.0,93,29.92,10.0,NNE,4.6,-,N/A,,Clear,30,2014-01-01 14:10:00
8:30 AM,28.4,26.6,93,29.92,10.0,ENE,3.5,-,N/A,,Clear,70,2014-01-01 14:30:00
8:50 AM,28.4,26.6,93,29.91,10.0,East,4.6,-,N/A,,Clear,90,2014-01-01 14:50:00
9:10 AM,28.4,26.6,93,29.93,10.0,North,3.5,-,N/A,,Clear,10,2014-01-01 15:10:00
9:30 AM,32.0,24.8,75,29.93,10.0,North,10.4,-,N/A,,Clear,360,2014-01-01 15:30:00
9:50 AM,32.0,26.6,80,29.95,10.0,North,10.4,-,N/A,,Clear,350,2014-01-01 15:50:00
10:10 AM,33.8,28.4,81,29.95,9.0,North,6.9,-,N/A,,Clear,10,2014-01-01 16:10:00
10:30 AM,35.6,28.4,75,29.95,10.0,NNE,11.5,-,N/A,,Clear,30,2014-01-01 16:30:00
10:50 AM,35.6,28.4,75,29.96,10.0,NNE,10.4,-,N/A,,Clear,30,2014-01-01 16:50:00
11:10 AM,35.6,28.4,75,29.95,10.0,NE,12.7,-,N/A,,Clear,40,2014-01-01 17:10:00
11:30 AM,37.4,28.4,70,29.94,10.0,NNE,15.0,-,N/A,,Clear,30,2014-01-01 17:30:00
11:50 AM,37.4,28.4,70,29.95,10.0,NNE,13.8,-,N/A,,Clear,30,2014-01-01 17:50:00
12:10 PM,39.2,28.4,65,29.97,10.0,North,20.7,27.6,N/A,,Mostly Cloudy,360,2014-01-01 18:10:00
12:30 PM,32.0,24.8,75,29.98,9.0,North,26.5,32.2,N/A,,Overcast,350,2014-01-01 18:30:00
12:50 PM,30.2,23.0,75,29.99,9.0,North,23.0,31.1,N/A,,Overcast,360,2014-01-01 18:50:00
1:10 PM,28.4,21.2,74,30.01,8.0,North,21.9,33.4,N/A,,Overcast,360,2014-01-01 19:10:00
1:30 PM,28.4,19.4,69,30.02,8.0,North,23.0,29.9,N/A,,Overcast,360,2014-01-01 19:30:00
1:50 PM,28.4,19.4,69,30.03,9.0,North,21.9,25.3,N/A,,Overcast,350,2014-01-01 19:50:00
2:10 PM,28.4,19.4,69,30.03,9.0,NNW,25.3,31.1,N/A,,Overcast,340,2014-01-01 20:10:00
2:30 PM,30.2,19.4,64,30.05,9.0,North,21.9,28.8,N/A,,Overcast,360,2014-01-01 20:30:00
2:50 PM,28.4,17.6,64,30.06,9.0,North,23.0,33.4,N/A,,Overcast,350,2014-01-01 20:50:00
3:10 PM,30.2,17.6,60,30.07,9.0,North,24.2,33.4,N/A,,Mostly Cloudy,360,2014-01-01 21:10:00
3:30 PM,28.4,15.8,59,30.10,9.0,North,28.8,33.4,N/A,,Overcast,360,2014-01-01 21:30:00
3:50 PM,28.4,15.8,59,30.11,9.0,North,21.9,33.4,N/A,,Overcast,10,2014-01-01 21:50:00
4:10 PM,26.6,15.8,64,30.13,8.0,North,24.2,29.9,N/A,,Overcast,360,2014-01-01 22:10:00
4:30 PM,26.6,14.0,59,30.16,9.0,North,20.7,29.9,N/A,,Overcast,360,2014-01-01 22:30:00
4:50 PM,26.6,14.0,59,30.17,10.0,North,23.0,27.6,N/A,,Overcast,350,2014-01-01 22:50:00
5:10 PM,24.8,14.0,64,30.19,9.0,North,26.5,34.5,N/A,,Overcast,350,2014-01-01 23:10:00
5:30 PM,23.0,14.0,68,30.21,9.0,North,17.3,28.8,N/A,,Overcast,360,2014-01-01 23:30:00
5:50 PM,23.0,15.8,74,30.23,2.5,North,19.6,33.4,N/A,,Overcast,360,2014-01-01 23:50:00
6:10 PM,21.2,17.6,86,30.24,1.5,North,20.7,-,0.02,Snow,Light Snow,360,2014-01-02 00:10:00
6:30 PM,19.4,17.6,93,30.26,0.5,North,18.4,31.1,0.40,Snow,Snow,360,2014-01-02 00:30:00
6:50 PM,19.4,17.6,93,30.28,0.5,North,21.9,-,1.47,Snow,Snow,360,2014-01-02 00:50:00
7:10 PM,19.4,15.8,86,30.30,0.8,North,19.6,28.8,0.25,Snow,Light Snow,350,2014-01-02 01:10:00
7:30 PM,19.4,15.8,86,30.31,1.2,North,21.9,32.2,0.73,Snow,Light Snow,350,2014-01-02 01:30:00
7:50 PM,19.4,15.8,86,30.32,1.8,North,20.7,34.5,0.89,Snow,Light Snow,360,2014-01-02 01:50:00
8:10 PM,19.4,15.8,86,30.33,2.0,North,23.0,29.9,0.03,Snow,Light Snow,350,2014-01-02 02:10:00
8:30 PM,19.4,14.0,80,30.34,2.5,North,23.0,31.1,0.08,Snow,Light Snow,360,2014-01-02 02:30:00
8:50 PM,19.4,14.0,80,30.34,4.0,North,21.9,26.5,0.10,Snow,Light Snow,360,2014-01-02 02:50:00
9:10 PM,19.4,14.0,80,30.35,8.0,North,18.4,29.9,N/A,Snow,Light Snow,360,2014-01-02 03:10:00
9:30 PM,19.4,14.0,80,30.36,10.0,North,19.6,24.2,N/A,,Mostly Cloudy,350,2014-01-02 03:30:00
9:50 PM,17.6,12.2,79,30.36,10.0,North,19.6,25.3,N/A,Rain,Freezing Rain,350,2014-01-02 03:50:00
10:10 PM,17.6,12.2,79,30.37,9.0,North,19.6,24.2,N/A,,Clear,350,2014-01-02 04:10:00
10:30 PM,17.6,12.2,79,30.37,9.0,North,17.3,21.9,N/A,,Clear,350,2014-01-02 04:30:00
10:50 PM,17.6,10.4,73,30.38,8.0,North,18.4,26.5,N/A,Rain,Freezing Rain,350,2014-01-02 04:50:00
11:10 PM,17.6,10.4,73,30.38,10.0,North,18.4,-,N/A,Rain,Freezing Rain,360,2014-01-02 05:10:00
11:30 PM,15.8,10.4,79,30.38,9.0,North,19.6,-,N/A,,Clear,350,2014-01-02 05:30:00
11:50 PM,15.8,10.4,79,30.39,10.0,North,20.7,-,N/A,,Clear,350,2014-01-02 05:50:00